ZHONGXING-2D

Last updated on Wed Sep 09 2026 00:03:02 GMT+0000 (Coordinated Universal Time)

1 43920U 19001A 26251.47081993 -.00000358 00000+0 00000+0 0 9991 2 43920 0.0482 302.5252 0001400 2.6208 341.8804 1.00274386 54914
UTC large
Height (km)
Speed (km/s)
/
Latitude / Longitude
Inclination (degrees)
Orbital Period (minutes)
Azimuth
Elevation
Range (km)
Doppler Factor

Next 0 passes for location: London (51.5072 / 0.1276)

No passes found over London.
ZHONGXING-2D